Tracking 22438 objects as of 25-Feb-2021
HD Live streaming from Space Station
objects crossing your sky now

DELTA 1 DEB

Track DELTA 1 DEB now!
10-day predictions


NORAD ID: 21291
Int'l Code: 1975-052AC
Perigee: 863.6 km
Apogee: 1,069.7 km
Inclination: 99.8 °
Period: 104.3 minutes
Semi major axis: 7337 km
RCS: 0.0114 m2 (small)
Launch date: June 12, 1975
Source: United States (US)
Launch site: AIR FORCE WESTERN TEST RANGE (AFWTR)

Note: This is SATELLITE DEBRIS
aabbcc
Your satellite tracking list
Your tracking list is empty




NASA's NSSDC Master Catalog

Two Line Element Set (TLE):
1 21291U 75052AC  21055.44658389  .00000036  00000-0  72744-4 0  9991
2 21291  99.8363 114.9731 0140454  73.3646 299.3339 13.81228544499848
Source of the keplerian elements: AFSPC